Flag for U.S.A. Weather past 2 weeks in San Antonio, Texas, U.S.A.

Now
45 °F

Drizzle. Fog.


Feels Like: 43 °F
Forecast: 47 / 65 °F
Wind: 5 mph from East

Location: San Antonio International Airport

Current Time: Mar 3, 2015 at 3:09:04 AM

Latest Report: Mar 3, 2015 at 1:51 AM


Visibility: 0 mi

Pressure: 30.06 "Hg

Humidity: 97%

Dew point: 44 °F

Location of San AntonioLocation

Historic Weather in San Antonio — Graph

°F

San Antonio temperature yesterday

Maximum temperature yesterday: 49 °F (at 1:51 PM)
Minimum temperature yesterday: 41 °F (at 6:51 AM)
Average temperature yesterday: 45 °F

Past Weeks' High & Low Weather Summary

 TemperatureHumidityPressure
High79 °F (Feb 21, 3:51 PM)97% (Mar 3, 1:51 AM)30.45 "Hg (Mar 3, 1:51 AM)
Low32 °F (Feb 24, 12:51 AM)22% (Feb 25, 3:51 PM)29.74 "Hg (Feb 20, 4:51 PM)
Average48 °F72%30.12 "Hg
* Reported Feb 16 1:51 AM — Mar 3 1:51 AM, San Antonio, Weather by CustomWeather, © 2015

Note: Actual official high and low records may vary slightly from our data, if they occured in-between our weather recording intervals... More about our weather records

Advertising

San Antonio weather history for previous 24 hours

 ConditionsComfort  
Time TempWeatherWind HumidityBarometerVisibility
1:51 AM
Tue, Mar 3
45 °FDrizzle. Fog.5 mph97%30.06 "Hg0 mi
12:51 AM46 °FDrizzle. Fog.3 mph93%30.09 "Hg0 mi
11:51 PM
Mon, Mar 2
46 °FDrizzle. Fog.6 mph93%30.12 "Hg0 mi
11:03 PM46 °FDrizzle. Fog.5 mph93%30.16 "Hg0 mi
10:51 PM46 °FDrizzle. Fog.5 mph93%30.14 "Hg1 mi
9:51 PM46 °FDrizzle. Fog.7 mph93%30.14 "Hg0 mi
8:51 PM46 °FDrizzle. Fog.7 mph93%30.14 "Hg0 mi
7:51 PM46 °FDrizzle. Fog.6 mph96%30.13 "Hg1 mi
6:51 PM47 °FDrizzle. Fog.6 mph93%30.13 "Hg0 mi
5:51 PM47 °FDrizzle. Fog.6 mph93%30.13 "Hg1 mi
4:51 PM48 °FFog.7 mph89%30.14 "Hg6 mi
3:51 PM49 °FLow clouds.5 mph84%30.16 "Hg7 mi
2:51 PM49 °FLow clouds.6 mph84%30.18 "Hg10 mi
1:51 PM49 °FLow clouds.7 mph84%30.20 "Hg9 mi
12:51 PM48 °FLow clouds.8 mph83%30.24 "Hg10 mi
11:51 AM46 °FLow clouds.8 mph86%30.27 "Hg9 mi
10:51 AM46 °FLow clouds.10 mph83%30.30 "Hg10 mi
9:51 AM44 °FLow clouds.12 mph85%30.29 "Hg10 mi
8:51 AM42 °FDrizzle. Fog.12 mph89%30.29 "Hg6 mi
7:57 AM42 °FDrizzle. Mostly cloudy.10 mph89%30.31 "Hg7 mi
6:51 AM41 °FFog.10 mph93%30.27 "Hg4 mi
6:02 AM42 °FLow clouds.10 mph89%30.28 "Hg10 mi
5:51 AM42 °FOvercast.13 mph89%30.25 "Hg10 mi
4:51 AM42 °FOvercast.13 mph89%30.24 "Hg8 mi
3:51 AM42 °FDrizzle. Fog.8 mph92%30.25 "Hg6 mi
Weather by CustomWeather, © 2015

See weather overviewHow to use our weather pages